Ft. Stewart, GA

5:32 AM EDT on April 29, 2017 (GMT -0400)
Wright Army Air Field

Weather History for KLHW - July, 2014

Change the Weather History Date:

Wednesday, July 30, 2014

  Actual Average Record
Temperature  
Mean Temperature 78 °F -  
Max Temperature 88 °F 93 °F 102 °F (2011)
Min Temperature 69 °F 71 °F 67 °F (1984)
Cooling Degree Days 14    
Growing Degree Days 28 (Base 50)    
Moisture  
Dew Point 68 °F    
Average Humidity 79    
Maximum Humidity 91    
Minimum Humidity 49    
Precipitation  
Precipitation 0.03 in - - ()
Sea Level Pressure  
Sea Level Pressure 29.96 in    
Wind  
Wind Speed 2 mph (NE)    
Max Wind Speed 16 mph    
Max Gust Speed 21 mph    
Visibility 9 miles    
Events Rain    
Averages and records for this station are not official NWS values.
T = Trace of Precipitation, MM = Missing Value Source: NWS Daily Summary

Daily Weather History Graph

Daily Weather History Graph

Search for Another Location

Airport or City:

Trip Planner

Search our weather history database for the weather conditions in past years. The results will help you decide how hot, cold, wet, or windy it might be!

Date:

Astronomy

Jul. 30, 2014 Rise Set
Actual Time 6:40 AM EDT 8:24 PM EDT
Civil Twilight 6:13 AM EDT 8:51 PM EDT
Nautical Twilight 5:41 AM EDT 9:23 PM EDT
Astronomical Twilight 5:07 AM EDT 9:57 PM EDT
Moon 9:55 AM EDT (7/30) 10:23 PM EDT (7/30)
Length of Visible Light 14h 37m
Length of Day
13h 44m
Waxing Crescent, 12% of the Moon is Illuminated
Jul 30
Waxing Crescent
Aug 3
First Quarter
Aug 10
Full
Aug 17
Last Quarter
Aug 25
New

Hourly Weather History & Observations

Time (EDT) Temp. Heat Index Dew Point Humidity Pressure Visibility Wind Dir Wind Speed Gust Speed Precip Events Conditions
12:58 AM 72.7 °F - 67.3 °F 83% 29.95 in 10.0 mi Calm Calm - N/A   Partly Cloudy
1:38 AM 71.6 °F - 68.0 °F 88% 29.94 in 9.0 mi Calm Calm - N/A   Clear
1:58 AM 71.2 °F - 66.6 °F 85% 29.95 in 9.0 mi Calm Calm - N/A   Clear
2:23 AM 69.8 °F - 66.2 °F 88% 29.94 in 8.0 mi Calm Calm - N/A   Clear
2:58 AM 69.6 °F - 66.2 °F 89% 29.94 in 9.0 mi Calm Calm - N/A   Clear
3:03 AM 69.8 °F - 66.2 °F 88% 29.93 in 10.0 mi Calm Calm - N/A   Clear
3:43 AM 69.8 °F - 66.2 °F 88% 29.93 in 9.0 mi Calm Calm - N/A   Mostly Cloudy
3:58 AM 69.1 °F - 66.4 °F 91% 29.94 in 9.0 mi Calm Calm - N/A   Overcast
4:13 AM 69.8 °F - 66.2 °F 88% 29.93 in 9.0 mi Calm Calm - N/A   Overcast
4:18 AM 69.8 °F - 66.2 °F 88% 29.93 in 10.0 mi Calm Calm - N/A   Overcast
4:28 AM 69.8 °F - 66.2 °F 88% 29.93 in 7.0 mi Calm Calm - N/A   Mostly Cloudy
4:58 AM 70.2 °F - 66.0 °F 87% 29.95 in 6.0 mi Calm Calm - N/A   Haze
5:08 AM 69.8 °F - 66.2 °F 88% 29.94 in 9.0 mi Calm Calm - N/A   Overcast
5:13 AM 69.8 °F - 66.2 °F 88% 29.94 in 8.0 mi Calm Calm - N/A   Overcast
5:33 AM 71.6 °F - 66.2 °F 83% 29.94 in 9.0 mi NNW 5.8 mph - N/A   Overcast
5:58 AM 72.0 °F - 63.7 °F 75% 29.96 in 10.0 mi NNW 4.6 mph - N/A   Mostly Cloudy
6:58 AM 70.0 °F - 63.9 °F 81% 29.96 in 5.0 mi North 2.3 mph - N/A   Haze
7:58 AM 71.8 °F - 64.6 °F 78% 29.97 in 10.0 mi NNW 3.5 mph - N/A   Overcast
8:58 AM 74.1 °F - 64.9 °F 73% 29.99 in 7.0 mi NNE 2.3 mph - N/A   Mostly Cloudy
9:58 AM 77.2 °F - 65.5 °F 67% 29.99 in 10.0 mi North 2.3 mph - N/A   Mostly Cloudy
10:58 AM 79.5 °F - 67.6 °F 67% 30.00 in 10.0 mi NNW 3.5 mph - N/A   Overcast
11:58 AM 79.9 °F - 69.1 °F 69% 30.01 in 10.0 mi SW 4.6 mph - N/A   Overcast
12:58 PM 80.6 °F 83.6 °F 69.1 °F 68% 30.00 in 10.0 mi West 3.5 mph - N/A   Overcast
1:58 PM 85.6 °F 90.4 °F 70.2 °F 60% 29.99 in 10.0 mi East 6.9 mph - N/A   Overcast
2:58 PM 86.9 °F 92.1 °F 70.7 °F 58% 29.98 in 10.0 mi ENE 9.2 mph 17.3 mph N/A   Mostly Cloudy
3:58 PM 88.3 °F 91.2 °F 66.7 °F 49% 29.96 in 10.0 mi East 12.7 mph - N/A   Scattered Clouds
4:58 PM 88.0 °F 92.9 °F 69.8 °F 55% 29.95 in 10.0 mi East 8.1 mph - N/A   Mostly Cloudy
5:58 PM 82.6 °F 87.8 °F 72.3 °F 71% 29.95 in 10.0 mi NE 6.9 mph - N/A   Mostly Cloudy
6:58 PM 82.8 °F 88.4 °F 72.9 °F 72% 29.96 in 10.0 mi SE 16.1 mph 20.7 mph N/A   Mostly Cloudy
7:06 PM 80.6 °F 85.4 °F 73.4 °F 79% 29.95 in 8.0 mi SE 9.2 mph 20.7 mph N/A Rain Light Rain
7:26 PM 78.8 °F - 73.4 °F 83% 29.95 in 10.0 mi ENE 2.3 mph - N/A   Overcast
7:58 PM 78.1 °F - 74.1 °F 88% 29.97 in 10.0 mi NE 4.6 mph - 0.03 in   Mostly Cloudy
8:58 PM 78.1 °F - 74.3 °F 88% 29.99 in 10.0 mi East 5.8 mph - N/A   Overcast
9:58 PM 78.1 °F - 73.8 °F 86% 30.00 in 10.0 mi Calm Calm - N/A   Overcast
10:58 PM 76.6 °F - 73.4 °F 90% 30.00 in 10.0 mi ENE 1.2 mph - N/A   Overcast
11:58 PM 76.1 °F - 73.0 °F 90% 30.00 in 10.0 mi NNE 3.5 mph - N/A   Scattered Clouds